Location: Ballingbuur
(53.0000°N, 5.7667°E)
Time: 07:07:26
(UTC+00:00)

Cosmos 2112 Rocket - Pass Details

Date: 29 November 2020
Orbit: 756 x 787 km, 74.0° (Epoch: 24 January)

Event Time Altitude Azimuth Distance (km) Brightness Sun altitude
Exits shadow 04:38:54 54° 320° (NW) 952 4.2 -23.9°
Maximum altitude 04:40:06 78° 247° (WSW) 810 3.9 -23.8°
Drops below altitude 10° 04:45:26 10° 162° (SSE) 2,342 6.8 -23.0°
Sets 04:47:48 0° 161° (SSE) 3,264 7.6 -22.6°
